Location: Bailleul
(50.3375°N, 2.8513°E)
Time: 02:54:38
(UTC+00:00)

Cosmos 1980 - Pass Details

Date: 23 October 2021
Orbit: 839 x 847 km, 71.0° (Epoch: 01 December)

Event Time Altitude Azimuth Distance (km) Brightness Sun altitude
Rises 05:19:57 0° 332° (NNW) 3,408 6.5 -10.9°
Reaches altitude 10° 05:22:29 10° 337° (NNW) 2,471 5.9 -10.5°
Maximum altitude 05:28:02 53° 54° (NE) 1,032 4.5 -9.6°
Drops below altitude 10° 05:33:33 10° 131° (SE) 2,462 7.1 -8.7°
Sets 05:36:03 0° 136° (SE) 3,395 7.8 -8.3°
